Time,TemperatureF,DewpointF,PressureIn,WindDirection,WindDirectionDegrees,WindSpeedMPH,WindSpeedGustMPH,Humidity,HourlyPrecipIn,Conditions,Clouds,dailyrainin,SoftwareType,DateUTC
2013-07-17 00:01:00,57.3,36.7,29.84,ESE,103,0.0,0.0,46,0.00,,,0.00,WeatherTracker,2013-07-17 07:01:00,
2013-07-17 00:06:00,57.6,37.5,29.84,ESE,103,0.0,0.0,47,0.00,,,0.00,WeatherTracker,2013-07-17 07:06:00,
2013-07-17 00:11:00,57.3,37.2,29.84,ESE,104,0.0,0.0,47,0.00,,,0.00,WeatherTracker,2013-07-17 07:11:00,
2013-07-17 00:16:00,56.9,37.9,29.84,ESE,103,0.0,0.0,49,0.00,,,0.00,WeatherTracker,2013-07-17 07:16:00,
2013-07-17 00:21:00,55.8,36.9,29.85,ESE,103,2.0,3.0,49,0.00,,,0.00,WeatherTracker,2013-07-17 07:21:00,
2013-07-17 00:26:00,55.3,37.0,29.85,ESE,104,0.0,3.0,50,0.00,,,0.00,WeatherTracker,2013-07-17 07:26:00,
2013-07-17 00:31:00,54.7,36.9,29.85,ESE,104,0.0,3.0,51,0.00,,,0.00,WeatherTracker,2013-07-17 07:31:00,
2013-07-17 00:36:00,54.0,36.3,29.85,ESE,105,0.0,3.0,51,0.00,,,0.00,WeatherTracker,2013-07-17 07:36:00,
2013-07-17 00:41:00,53.6,37.8,29.86,ESE,105,2.0,3.0,55,0.00,,,0.00,WeatherTracker,2013-07-17 07:41:00,
2013-07-17 00:46:00,52.0,37.7,29.86,SE,141,2.0,4.0,58,0.00,,,0.00,WeatherTracker,2013-07-17 07:46:00,
2013-07-17 00:51:00,51.4,36.7,29.86,North,352,2.0,4.0,57,0.00,,,0.00,WeatherTracker,2013-07-17 07:51:00,
2013-07-17 00:56:00,50.8,36.6,29.86,North,352,0.0,4.0,58,0.00,,,0.00,WeatherTracker,2013-07-17 07:56:00,
2013-07-17 01:01:00,50.5,36.3,29.87,North,352,0.0,4.0,58,0.00,,,0.00,WeatherTracker,2013-07-17 08:01:00,
2013-07-17 01:06:00,50.6,35.9,29.87,North,352,0.0,0.0,57,0.00,,,0.00,WeatherTracker,2013-07-17 08:06:00,
2013-07-17 01:11:00,50.4,36.6,29.87,North,352,0.0,0.0,59,0.00,,,0.00,WeatherTracker,2013-07-17 08:11:00,
2013-07-17 01:17:00,49.9,37.0,29.88,North,352,3.0,3.0,61,0.00,,,0.00,WeatherTracker,2013-07-17 08:17:00,
2013-07-17 01:22:00,49.9,36.1,29.88,North,352,1.0,4.0,59,0.00,,,0.00,WeatherTracker,2013-07-17 08:22:00,
2013-07-17 01:27:00,49.8,36.9,29.88,North,352,0.0,4.0,61,0.00,,,0.00,WeatherTracker,2013-07-17 08:27:00,
2013-07-17 01:32:00,49.7,35.5,29.89,North,352,1.0,3.0,58,0.00,,,0.00,WeatherTracker,2013-07-17 08:32:00,
2013-07-17 01:37:00,50.3,36.1,29.89,North,352,1.0,3.0,58,0.00,,,0.00,WeatherTracker,2013-07-17 08:37:00,
2013-07-17 01:42:00,50.5,36.3,29.88,North,350,0.0,3.0,58,0.00,,,0.00,WeatherTracker,2013-07-17 08:42:00,
2013-07-17 01:47:00,50.8,36.1,29.89,North,352,2.0,2.0,57,0.00,,,0.00,WeatherTracker,2013-07-17 08:47:00,
2013-07-17 01:52:00,49.2,35.9,29.89,North,352,0.0,3.0,60,0.00,,,0.00,WeatherTracker,2013-07-17 08:52:00,
2013-07-17 01:57:00,48.0,35.6,29.89,North,352,0.0,3.0,62,0.00,,,0.00,WeatherTracker,2013-07-17 08:57:00,
2013-07-17 02:02:00,47.2,34.9,29.89,NNE,17,1.0,3.0,62,0.00,,,0.00,WeatherTracker,2013-07-17 09:02:00,
2013-07-17 02:07:00,45.7,35.0,29.89,NNE,19,2.0,4.0,66,0.00,,,0.00,WeatherTracker,2013-07-17 09:07:00,
2013-07-17 02:12:00,44.6,34.7,29.89,ESE,122,1.0,5.0,68,0.00,,,0.00,WeatherTracker,2013-07-17 09:12:00,
2013-07-17 02:17:00,43.9,34.0,29.89,ESE,122,0.0,5.0,68,0.00,,,0.00,WeatherTracker,2013-07-17 09:17:00,
2013-07-17 02:22:00,43.6,34.1,29.90,SE,129,3.0,4.0,69,0.00,,,0.00,WeatherTracker,2013-07-17 09:22:00,
2013-07-17 02:27:00,43.2,34.4,29.90,SE,129,1.0,4.0,71,0.00,,,0.00,WeatherTracker,2013-07-17 09:27:00,
2013-07-17 02:32:00,42.8,34.1,29.90,ESE,113,0.0,4.0,71,0.00,,,0.00,WeatherTracker,2013-07-17 09:32:00,
2013-07-17 02:38:00,42.6,33.9,29.90,ESE,112,1.0,4.0,71,0.00,,,0.00,WeatherTracker,2013-07-17 09:38:00,
2013-07-17 02:43:00,42.5,33.4,29.90,ESE,112,0.0,3.0,70,0.00,,,0.00,WeatherTracker,2013-07-17 09:43:00,
2013-07-17 02:48:00,42.4,33.3,29.90,ESE,113,0.0,3.0,70,0.00,,,0.00,WeatherTracker,2013-07-17 09:48:00,
2013-07-17 02:53:00,42.3,33.9,29.90,ESE,112,4.0,4.0,72,0.00,,,0.00,WeatherTracker,2013-07-17 09:53:00,
2013-07-17 02:58:00,42.1,33.4,29.90,ESE,115,3.0,4.0,71,0.00,,,0.00,WeatherTracker,2013-07-17 09:58:00,
2013-07-17 03:03:00,42.0,33.3,29.90,ESE,115,0.0,4.0,71,0.00,,,0.00,WeatherTracker,2013-07-17 10:03:00,
2013-07-17 03:08:00,41.9,33.2,29.91,ESE,114,0.0,4.0,71,0.00,,,0.00,WeatherTracker,2013-07-17 10:08:00,
2013-07-17 03:13:00,41.8,33.8,29.90,ESE,115,0.0,3.0,73,0.00,,,0.00,WeatherTracker,2013-07-17 10:13:00,
2013-07-17 03:18:00,41.8,33.1,29.90,ESE,122,2.0,3.0,71,0.00,,,0.00,WeatherTracker,2013-07-17 10:18:00,
2013-07-17 03:23:00,41.9,32.8,29.91,ESE,122,0.0,4.0,70,0.00,,,0.00,WeatherTracker,2013-07-17 10:23:00,
2013-07-17 03:28:00,42.2,32.0,29.91,ESE,122,0.0,4.0,67,0.00,,,0.00,WeatherTracker,2013-07-17 10:28:00,
2013-07-17 03:33:00,43.5,32.9,29.91,ESE,122,0.0,3.0,66,0.00,,,0.00,WeatherTracker,2013-07-17 10:33:00,
2013-07-17 03:39:00,43.8,32.4,29.91,ESE,122,0.0,0.0,64,0.00,,,0.00,WeatherTracker,2013-07-17 10:39:00,
2013-07-17 03:44:00,44.3,32.1,29.91,ESE,122,0.0,0.0,62,0.00,,,0.00,WeatherTracker,2013-07-17 10:44:00,
2013-07-17 03:49:00,44.8,32.2,29.91,ESE,121,0.0,0.0,61,0.00,,,0.00,WeatherTracker,2013-07-17 10:49:00,
2013-07-17 03:54:00,45.0,32.8,29.91,ESE,119,0.0,2.0,62,0.00,,,0.00,WeatherTracker,2013-07-17 10:54:00,
2013-07-17 03:59:00,44.3,32.5,29.91,ESE,119,0.0,3.0,63,0.00,,,0.00,WeatherTracker,2013-07-17 10:59:00,
2013-07-17 04:04:00,43.1,33.3,29.91,ESE,118,0.0,3.0,68,0.00,,,0.00,WeatherTracker,2013-07-17 11:04:00,
2013-07-17 04:09:00,42.9,32.0,29.91,ESE,118,0.0,2.0,65,0.00,,,0.00,WeatherTracker,2013-07-17 11:09:00,
2013-07-17 04:14:00,42.9,33.1,29.92,ESE,119,0.0,0.0,68,0.00,,,0.00,WeatherTracker,2013-07-17 11:14:00,
2013-07-17 04:19:00,42.4,33.3,29.92,ESE,119,0.0,2.0,70,0.00,,,0.00,WeatherTracker,2013-07-17 11:19:00,
2013-07-17 04:24:00,40.6,32.6,29.92,ESE,119,1.0,2.0,73,0.00,,,0.00,WeatherTracker,2013-07-17 11:24:00,
2013-07-17 04:29:00,40.2,32.6,29.92,ESE,119,0.0,2.0,74,0.00,,,0.00,WeatherTracker,2013-07-17 11:29:00,
2013-07-17 04:34:00,40.3,32.7,29.92,ESE,119,0.0,2.0,74,0.00,,,0.00,WeatherTracker,2013-07-17 11:34:00,
2013-07-17 04:39:00,40.5,32.9,29.92,ESE,119,0.0,1.0,74,0.00,,,0.00,WeatherTracker,2013-07-17 11:39:00,
2013-07-17 04:44:00,40.5,32.5,29.93,ESE,119,0.0,1.0,73,0.00,,,0.00,WeatherTracker,2013-07-17 11:44:00,
2013-07-17 04:49:00,40.6,33.3,29.93,ESE,119,0.0,0.0,75,0.00,,,0.00,WeatherTracker,2013-07-17 11:49:00,
2013-07-17 04:54:00,40.7,33.7,29.93,ESE,119,0.0,0.0,76,0.00,,,0.00,WeatherTracker,2013-07-17 11:54:00,
2013-07-17 04:59:00,40.7,33.7,29.93,ESE,119,0.0,0.0,76,0.00,,,0.00,WeatherTracker,2013-07-17 11:59:00,
2013-07-17 05:04:00,40.9,32.2,29.94,ESE,118,0.0,0.0,71,0.00,,,0.00,WeatherTracker,2013-07-17 12:04:00,
2013-07-17 05:09:00,41.5,31.7,29.94,North,356,3.0,3.0,68,0.00,,,0.00,WeatherTracker,2013-07-17 12:09:00,
2013-07-17 05:14:00,41.7,31.2,29.94,North,356,2.0,4.0,66,0.00,,,0.00,WeatherTracker,2013-07-17 12:14:00,
2013-07-17 05:19:00,42.4,31.1,29.94,North,356,2.0,5.0,64,0.00,,,0.00,WeatherTracker,2013-07-17 12:19:00,
2013-07-17 05:24:00,43.0,30.9,29.95,North,356,0.0,5.0,62,0.00,,,0.00,WeatherTracker,2013-07-17 12:24:00,
2013-07-17 05:29:00,43.0,30.9,29.95,North,356,0.0,4.0,62,0.00,,,0.00,WeatherTracker,2013-07-17 12:29:00,
2013-07-17 05:35:00,43.4,30.9,29.95,North,356,0.0,0.0,61,0.00,,,0.00,WeatherTracker,2013-07-17 12:35:00,
2013-07-17 05:40:00,43.7,31.1,29.95,North,356,0.0,0.0,61,0.00,,,0.00,WeatherTracker,2013-07-17 12:40:00,
2013-07-17 05:45:00,43.6,30.6,29.95,North,356,0.0,1.0,60,0.00,,,0.00,WeatherTracker,2013-07-17 12:45:00,
2013-07-17 05:50:00,43.8,30.4,29.96,North,356,0.0,1.0,59,0.00,,,0.00,WeatherTracker,2013-07-17 12:50:00,
2013-07-17 05:55:00,41.7,30.8,29.96,SE,142,4.0,4.0,65,0.00,,,0.00,WeatherTracker,2013-07-17 12:55:00,
2013-07-17 06:00:00,38.3,29.7,29.97,SSE,149,5.0,5.0,71,0.00,,,0.00,WeatherTracker,2013-07-17 13:00:00,
2013-07-17 06:05:00,36.8,30.0,29.97,SSE,148,3.0,5.0,76,0.00,,,0.00,WeatherTracker,2013-07-17 13:05:00,
2013-07-17 06:10:00,37.1,30.6,29.97,SSE,149,2.0,5.0,77,0.00,,,0.00,WeatherTracker,2013-07-17 13:10:00,
2013-07-17 06:15:00,38.4,31.2,29.97,SSE,148,2.0,3.0,75,0.00,,,0.00,WeatherTracker,2013-07-17 13:15:00,
2013-07-17 06:20:00,39.5,31.6,29.98,SSE,149,0.0,3.0,73,0.00,,,0.00,WeatherTracker,2013-07-17 13:20:00,
2013-07-17 06:25:00,41.1,32.1,29.98,SSE,149,0.0,3.0,70,0.00,,,0.00,WeatherTracker,2013-07-17 13:25:00,
2013-07-17 06:31:00,41.9,31.8,29.98,SSE,148,0.0,3.0,67,0.00,,,0.00,WeatherTracker,2013-07-17 13:31:00,
2013-07-17 06:36:00,42.8,31.9,29.98,SSE,149,0.0,0.0,65,0.00,,,0.00,WeatherTracker,2013-07-17 13:36:00,
2013-07-17 06:41:00,43.2,32.2,29.98,SSE,149,0.0,0.0,65,0.00,,,0.00,WeatherTracker,2013-07-17 13:41:00,
2013-07-17 06:46:00,43.4,33.6,29.98,SSE,149,0.0,0.0,68,0.00,,,0.00,WeatherTracker,2013-07-17 13:46:00,
2013-07-17 06:51:00,43.7,34.2,29.99,SSE,149,0.0,0.0,69,0.00,,,0.00,WeatherTracker,2013-07-17 13:51:00,
2013-07-17 06:56:00,44.3,34.8,29.99,SSE,148,0.0,0.0,69,0.00,,,0.00,WeatherTracker,2013-07-17 13:56:00,
2013-07-17 07:01:00,44.6,34.7,29.99,SSE,149,0.0,0.0,68,0.00,,,0.00,WeatherTracker,2013-07-17 14:01:00,
2013-07-17 07:06:00,45.0,35.1,29.99,SSE,148,0.0,0.0,68,0.00,,,0.00,WeatherTracker,2013-07-17 14:06:00,
2013-07-17 07:11:00,45.7,36.5,29.99,SSE,149,0.0,0.0,70,0.00,,,0.00,WeatherTracker,2013-07-17 14:11:00,
2013-07-17 07:16:00,47.6,37.2,29.99,SSE,148,0.0,0.0,67,0.00,,,0.00,WeatherTracker,2013-07-17 14:16:00,
2013-07-17 07:21:00,49.3,36.0,29.99,SSE,148,0.0,0.0,60,0.00,,,0.00,WeatherTracker,2013-07-17 14:21:00,
2013-07-17 07:26:00,50.7,36.9,29.99,SSE,149,0.0,0.0,59,0.00,,,0.00,WeatherTracker,2013-07-17 14:26:00,
2013-07-17 07:31:00,51.6,37.3,29.99,SSE,148,0.0,0.0,58,0.00,,,0.00,WeatherTracker,2013-07-17 14:31:00,
2013-07-17 07:36:00,52.4,36.7,30.00,SSE,148,0.0,0.0,55,0.00,,,0.00,WeatherTracker,2013-07-17 14:36:00,
2013-07-17 07:41:00,53.8,36.6,30.00,SSE,148,0.0,0.0,52,0.00,,,0.00,WeatherTracker,2013-07-17 14:41:00,
2013-07-17 07:46:00,54.5,36.2,30.00,SSE,148,0.0,1.0,50,0.00,,,0.00,WeatherTracker,2013-07-17 14:46:00,
2013-07-17 07:51:00,54.8,36.5,30.00,SSE,148,0.0,2.0,50,0.00,,,0.00,WeatherTracker,2013-07-17 14:51:00,
2013-07-17 07:56:00,55.2,37.4,30.00,SSE,148,0.0,2.0,51,0.00,,,0.00,WeatherTracker,2013-07-17 14:56:00,
2013-07-17 08:01:00,55.8,36.9,30.00,SSE,148,0.0,2.0,49,0.00,,,0.00,WeatherTracker,2013-07-17 15:01:00,
2013-07-17 08:06:00,56.3,38.9,30.00,SSE,148,0.0,1.0,52,0.00,,,0.00,WeatherTracker,2013-07-17 15:06:00,
2013-07-17 08:11:00,56.8,37.8,30.00,SSE,149,0.0,1.0,49,0.00,,,0.00,WeatherTracker,2013-07-17 15:11:00,
2013-07-17 08:16:00,57.6,38.6,30.00,SSE,148,0.0,0.0,49,0.00,,,0.00,WeatherTracker,2013-07-17 15:16:00,
2013-07-17 08:21:00,59.3,38.5,30.00,SSE,148,0.0,0.0,46,0.00,,,0.00,WeatherTracker,2013-07-17 15:21:00,
2013-07-17 08:27:00,60.7,39.2,30.01,SSE,148,0.0,1.0,45,0.00,,,0.00,WeatherTracker,2013-07-17 15:27:00,
2013-07-17 08:32:00,61.8,39.7,30.00,SSE,148,1.0,1.0,44,0.00,,,0.00,WeatherTracker,2013-07-17 15:32:00,
2013-07-17 08:37:00,63.0,40.7,30.00,SSE,148,0.0,1.0,44,0.00,,,0.00,WeatherTracker,2013-07-17 15:37:00,
2013-07-17 08:42:00,64.0,41.1,30.01,SSE,148,1.0,1.0,43,0.00,,,0.00,WeatherTracker,2013-07-17 15:42:00,
2013-07-17 08:47:00,64.8,41.8,30.01,SSE,148,0.0,2.0,43,0.00,,,0.00,WeatherTracker,2013-07-17 15:47:00,
2013-07-17 08:52:00,65.7,42.0,30.01,SSE,148,0.0,2.0,42,0.00,,,0.00,WeatherTracker,2013-07-17 15:52:00,
2013-07-17 08:57:00,66.6,42.2,30.00,SSE,148,0.0,3.0,41,0.00,,,0.00,WeatherTracker,2013-07-17 15:57:00,
2013-07-17 09:02:00,66.9,41.8,30.01,SSE,148,0.0,3.0,40,0.00,,,0.00,WeatherTracker,2013-07-17 16:02:00,
2013-07-17 09:07:00,67.6,41.1,30.00,SSE,148,0.0,2.0,38,0.00,,,0.00,WeatherTracker,2013-07-17 16:07:00,
2013-07-17 09:12:00,68.3,42.4,30.00,SE,128,4.0,4.0,39,0.00,,,0.00,WeatherTracker,2013-07-17 16:12:00,
2013-07-17 09:17:00,68.9,41.5,30.00,ESE,109,1.0,4.0,37,0.00,,,0.00,WeatherTracker,2013-07-17 16:17:00,
2013-07-17 09:22:00,69.3,41.2,30.00,ESE,109,2.0,4.0,36,0.00,,,0.00,WeatherTracker,2013-07-17 16:22:00,
2013-07-17 09:27:00,69.9,41.7,30.00,ESE,104,0.0,3.0,36,0.00,,,0.00,WeatherTracker,2013-07-17 16:27:00,
2013-07-17 09:32:00,70.5,40.0,30.00,ESE,110,0.0,3.0,33,0.00,,,0.00,WeatherTracker,2013-07-17 16:32:00,
2013-07-17 09:37:00,70.4,38.3,30.00,ESE,102,2.0,3.0,31,0.00,,,0.00,WeatherTracker,2013-07-17 16:37:00,
2013-07-17 09:42:00,70.5,39.2,30.00,ESE,102,0.0,3.0,32,0.00,,,0.00,WeatherTracker,2013-07-17 16:42:00,
2013-07-17 09:48:00,71.0,39.6,30.00,ESE,102,0.0,3.0,32,0.00,,,0.00,WeatherTracker,2013-07-17 16:48:00,
2013-07-17 09:53:00,71.0,40.4,29.99,ESE,102,0.0,3.0,33,0.00,,,0.00,WeatherTracker,2013-07-17 16:53:00,
2013-07-17 09:58:00,71.3,42.2,29.99,ESE,102,0.0,3.0,35,0.00,,,0.00,WeatherTracker,2013-07-17 16:58:00,
2013-07-17 10:03:00,71.4,40.0,29.99,NE,34,0.0,3.0,32,0.00,,,0.00,WeatherTracker,2013-07-17 17:03:00,
2013-07-17 10:08:00,72.1,39.8,29.99,NNE,30,0.0,3.0,31,0.00,,,0.00,WeatherTracker,2013-07-17 17:08:00,
2013-07-17 10:13:00,72.9,40.5,29.99,NNE,31,1.0,3.0,31,0.00,,,0.00,WeatherTracker,2013-07-17 17:13:00,
2013-07-17 10:18:00,73.2,39.9,29.99,NNE,27,2.0,4.0,30,0.00,,,0.00,WeatherTracker,2013-07-17 17:18:00,
2013-07-17 10:23:00,73.2,38.1,29.99,North,358,2.0,4.0,28,0.00,,,0.00,WeatherTracker,2013-07-17 17:23:00,
2013-07-17 10:28:00,73.0,39.7,29.99,North,357,3.0,4.0,30,0.00,,,0.00,WeatherTracker,2013-07-17 17:28:00,
2013-07-17 10:33:00,73.3,39.1,29.99,North,2,0.0,5.0,29,0.00,,,0.00,WeatherTracker,2013-07-17 17:33:00,
2013-07-17 10:38:00,73.7,42.8,29.98,North,352,1.0,5.0,33,0.00,,,0.00,WeatherTracker,2013-07-17 17:38:00,
2013-07-17 10:43:00,74.4,41.8,29.98,North,352,0.0,4.0,31,0.00,,,0.00,WeatherTracker,2013-07-17 17:43:00,
2013-07-17 10:48:00,75.1,40.7,29.98,North,352,0.0,4.0,29,0.00,,,0.00,WeatherTracker,2013-07-17 17:48:00,
2013-07-17 10:53:00,75.8,40.4,29.98,NNW,347,2.0,4.0,28,0.00,,,0.00,WeatherTracker,2013-07-17 17:53:00,
2013-07-17 10:58:00,75.9,39.5,29.98,NNW,341,2.0,5.0,27,0.00,,,0.00,WeatherTracker,2013-07-17 17:58:00,
2013-07-17 11:03:00,75.9,40.4,29.98,NNW,339,1.0,5.0,28,0.00,,,0.00,WeatherTracker,2013-07-17 18:03:00,
2013-07-17 11:09:00,76.3,36.8,29.98,NNW,339,0.0,4.0,24,0.00,,,0.00,WeatherTracker,2013-07-17 18:09:00,
2013-07-17 11:14:00,77.1,39.6,29.98,NNW,344,3.0,4.0,26,0.00,,,0.00,WeatherTracker,2013-07-17 18:14:00,
2013-07-17 11:19:00,77.4,36.7,29.97,NNW,338,0.0,6.0,23,0.00,,,0.00,WeatherTracker,2013-07-17 18:19:00,
2013-07-17 11:24:00,77.7,40.1,29.97,NNW,339,0.0,6.0,26,0.00,,,0.00,WeatherTracker,2013-07-17 18:24:00,
2013-07-17 11:29:00,78.1,39.4,29.97,NNW,329,0.0,5.0,25,0.00,,,0.00,WeatherTracker,2013-07-17 18:29:00,
2013-07-17 11:34:00,78.7,38.9,29.97,NNE,25,3.0,7.0,24,0.00,,,0.00,WeatherTracker,2013-07-17 18:34:00,
2013-07-17 11:39:00,79.3,39.4,29.97,North,8,3.0,7.0,24,0.00,,,0.00,WeatherTracker,2013-07-17 18:39:00,
2013-07-17 11:44:00,79.6,38.5,29.97,NW,304,3.0,5.0,23,0.00,,,0.00,WeatherTracker,2013-07-17 18:44:00,
2013-07-17 11:49:00,79.7,41.8,29.97,WNW,296,0.0,7.0,26,0.00,,,0.00,WeatherTracker,2013-07-17 18:49:00,
2013-07-17 11:54:00,80.6,35.8,29.96,NW,316,2.0,7.0,20,0.00,,,0.00,WeatherTracker,2013-07-17 18:54:00,
2013-07-17 11:59:00,81.1,40.9,29.96,NNW,333,1.0,4.0,24,0.00,,,0.00,WeatherTracker,2013-07-17 18:59:00,
2013-07-17 12:04:00,82.4,37.3,29.96,North,9,2.0,4.0,20,0.00,,,0.00,WeatherTracker,2013-07-17 19:04:00,
2013-07-17 12:09:00,83.0,39.0,29.96,East,91,0.0,3.0,21,0.00,,,0.00,WeatherTracker,2013-07-17 19:09:00,
2013-07-17 12:14:00,83.0,42.5,29.96,NNE,30,3.0,5.0,24,0.00,,,0.00,WeatherTracker,2013-07-17 19:14:00,
2013-07-17 12:19:00,83.1,39.1,29.96,NE,44,0.0,5.0,21,0.00,,,0.00,WeatherTracker,2013-07-17 19:19:00,
2013-07-17 12:24:00,83.4,39.3,29.96,North,360,3.0,5.0,21,0.00,,,0.00,WeatherTracker,2013-07-17 19:24:00,
2013-07-17 12:29:00,83.2,37.9,29.95,NW,317,3.0,5.0,20,0.00,,,0.00,WeatherTracker,2013-07-17 19:29:00,
2013-07-17 12:35:00,82.9,38.9,29.95,NNW,342,3.0,6.0,21,0.00,,,0.00,WeatherTracker,2013-07-17 19:35:00,
2013-07-17 12:40:00,82.6,38.7,29.95,ENE,66,0.0,6.0,21,0.00,,,0.00,WeatherTracker,2013-07-17 19:40:00,
2013-07-17 12:45:00,83.1,39.1,29.95,NNE,25,3.0,5.0,21,0.00,,,0.00,WeatherTracker,2013-07-17 19:45:00,
2013-07-17 12:50:00,83.9,43.2,29.95,North,8,0.0,5.0,24,0.00,,,0.00,WeatherTracker,2013-07-17 19:50:00,
2013-07-17 12:55:00,84.3,37.5,29.95,NNE,12,0.0,5.0,19,0.00,,,0.00,WeatherTracker,2013-07-17 19:55:00,
2013-07-17 13:00:00,84.5,40.3,29.94,North,356,5.0,5.0,21,0.00,,,0.00,WeatherTracker,2013-07-17 20:00:00,
2013-07-17 13:05:00,83.9,37.2,29.94,NNW,329,4.0,6.0,19,0.00,,,0.00,WeatherTracker,2013-07-17 20:05:00,
2013-07-17 13:10:00,83.5,40.6,29.94,NNW,331,9.0,9.0,22,0.00,,,0.00,WeatherTracker,2013-07-17 20:10:00,
2013-07-17 13:15:00,83.4,38.1,29.94,NW,326,2.0,10.0,20,0.00,,,0.00,WeatherTracker,2013-07-17 20:15:00,
2013-07-17 13:20:00,83.6,37.0,29.94,North,352,2.0,10.0,19,0.00,,,0.00,WeatherTracker,2013-07-17 20:20:00,
2013-07-17 13:25:00,84.1,41.1,29.93,NNE,20,2.0,7.0,22,0.00,,,0.00,WeatherTracker,2013-07-17 20:25:00,
2013-07-17 13:30:00,84.5,37.7,29.93,North,7,3.0,7.0,19,0.00,,,0.00,WeatherTracker,2013-07-17 20:30:00,
2013-07-17 13:35:00,84.7,39.2,29.93,NNW,339,3.0,7.0,20,0.00,,,0.00,WeatherTracker,2013-07-17 20:35:00,
2013-07-17 13:40:00,84.8,40.5,29.93,North,354,1.0,9.0,21,0.00,,,0.00,WeatherTracker,2013-07-17 20:40:00,
2013-07-17 13:45:00,85.3,39.7,29.93,North,2,1.0,9.0,20,0.00,,,0.00,WeatherTracker,2013-07-17 20:45:00,
2013-07-17 13:50:00,86.2,37.7,29.92,NW,315,4.0,5.0,18,0.00,,,0.00,WeatherTracker,2013-07-17 20:50:00,
2013-07-17 13:55:00,86.2,37.7,29.93,NNE,18,0.0,7.0,18,0.00,,,0.00,WeatherTracker,2013-07-17 20:55:00,
2013-07-17 14:00:00,86.3,40.5,29.92,North,350,2.0,7.0,20,0.00,,,0.00,WeatherTracker,2013-07-17 21:00:00,
2013-07-17 14:05:00,86.9,38.3,29.92,North,350,5.0,6.0,18,0.00,,,0.00,WeatherTracker,2013-07-17 21:05:00,
2013-07-17 14:10:00,86.9,38.3,29.92,NNE,29,1.0,6.0,18,0.00,,,0.00,WeatherTracker,2013-07-17 21:10:00,
2013-07-17 14:15:00,87.3,40.0,29.92,NE,39,0.0,5.0,19,0.00,,,0.00,WeatherTracker,2013-07-17 21:15:00,
2013-07-17 14:21:00,88.2,42.0,29.92,North,2,2.0,4.0,20,0.00,,,0.00,WeatherTracker,2013-07-17 21:21:00,
2013-07-17 14:26:00,88.1,37.8,29.92,North,6,2.0,7.0,17,0.00,,,0.00,WeatherTracker,2013-07-17 21:26:00,
2013-07-17 14:31:00,88.3,39.4,29.91,North,352,2.0,7.0,18,0.00,,,0.00,WeatherTracker,2013-07-17 21:31:00,
2013-07-17 14:36:00,88.6,41.0,29.91,NE,51,0.0,5.0,19,0.00,,,0.00,WeatherTracker,2013-07-17 21:36:00,
2013-07-17 14:41:00,89.1,40.0,29.91,North,358,4.0,6.0,18,0.00,,,0.00,WeatherTracker,2013-07-17 21:41:00,
2013-07-17 14:46:00,89.6,41.8,29.91,NNE,16,0.0,6.0,19,0.00,,,0.00,WeatherTracker,2013-07-17 21:46:00,
2013-07-17 14:51:00,89.6,41.8,29.91,NNE,15,0.0,6.0,19,0.00,,,0.00,WeatherTracker,2013-07-17 21:51:00,
2013-07-17 14:56:00,88.9,41.3,29.91,NNW,329,10.0,10.0,19,0.00,,,0.00,WeatherTracker,2013-07-17 21:56:00,
2013-07-17 15:01:00,87.9,39.1,29.91,NNW,333,0.0,11.0,18,0.00,,,0.00,WeatherTracker,2013-07-17 22:01:00,
2013-07-17 15:06:00,88.1,40.6,29.91,NNW,348,5.0,11.0,19,0.00,,,0.00,WeatherTracker,2013-07-17 22:06:00,
2013-07-17 15:11:00,88.3,40.8,29.91,North,7,6.0,12.0,19,0.00,,,0.00,WeatherTracker,2013-07-17 22:11:00,
2013-07-17 15:16:00,88.6,43.6,29.90,NNW,347,3.0,15.0,21,0.00,,,0.00,WeatherTracker,2013-07-17 22:16:00,
2013-07-17 15:21:00,88.8,41.2,29.90,NW,322,9.0,15.0,19,0.00,,,0.00,WeatherTracker,2013-07-17 22:21:00,
2013-07-17 15:26:00,88.6,42.4,29.90,WSW,246,6.0,15.0,20,0.00,,,0.00,WeatherTracker,2013-07-17 22:26:00,
2013-07-17 15:31:00,88.6,42.4,29.90,WNW,300,10.0,15.0,20,0.00,,,0.00,WeatherTracker,2013-07-17 22:31:00,
2013-07-17 15:36:00,88.2,43.3,29.90,WNW,295,9.0,16.0,21,0.00,,,0.00,WeatherTracker,2013-07-17 22:36:00,
2013-07-17 15:41:00,87.7,44.1,29.90,WNW,302,13.0,17.0,22,0.00,,,0.00,WeatherTracker,2013-07-17 22:41:00,
2013-07-17 15:46:00,87.1,41.1,29.90,NNW,330,11.0,19.0,20,0.00,,,0.00,WeatherTracker,2013-07-17 22:46:00,
2013-07-17 15:51:00,87.1,42.4,29.90,West,270,6.0,19.0,21,0.00,,,0.00,WeatherTracker,2013-07-17 22:51:00,
2013-07-17 15:56:00,86.8,43.4,29.90,WNW,284,12.0,16.0,22,0.00,,,0.00,WeatherTracker,2013-07-17 22:56:00,
2013-07-17 16:01:00,87.1,41.1,29.89,NW,315,4.0,17.0,20,0.00,,,0.00,WeatherTracker,2013-07-17 23:01:00,
2013-07-17 16:06:00,86.8,40.9,29.90,West,275,8.0,17.0,20,0.00,,,0.00,WeatherTracker,2013-07-17 23:06:00,
2013-07-17 16:12:00,87.1,41.1,29.90,NW,326,7.0,17.0,20,0.00,,,0.00,WeatherTracker,2013-07-17 23:12:00,
2013-07-17 16:17:00,87.3,41.3,29.89,NW,323,10.0,17.0,20,0.00,,,0.00,WeatherTracker,2013-07-17 23:17:00,
2013-07-17 16:22:00,87.5,41.5,29.89,NNW,330,12.0,18.0,20,0.00,,,0.00,WeatherTracker,2013-07-17 23:22:00,
2013-07-17 16:27:00,87.0,43.5,29.89,WNW,283,10.0,18.0,22,0.00,,,0.00,WeatherTracker,2013-07-17 23:27:00,
2013-07-17 16:32:00,86.9,44.6,29.89,WNW,287,13.0,18.0,23,0.00,,,0.00,WeatherTracker,2013-07-17 23:32:00,
2013-07-17 16:37:00,87.1,41.1,29.89,WNW,294,5.0,17.0,20,0.00,,,0.00,WeatherTracker,2013-07-17 23:37:00,
2013-07-17 16:42:00,87.1,42.4,29.89,NW,320,12.0,22.0,21,0.00,,,0.00,WeatherTracker,2013-07-17 23:42:00,
2013-07-17 16:47:00,87.0,42.3,29.89,NNW,336,9.0,22.0,21,0.00,,,0.00,WeatherTracker,2013-07-17 23:47:00,
2013-07-17 16:52:00,87.4,43.9,29.89,NW,304,11.0,22.0,22,0.00,,,0.00,WeatherTracker,2013-07-17 23:52:00,
2013-07-17 16:57:00,87.5,46.2,29.89,WNW,300,5.0,14.0,24,0.00,,,0.00,WeatherTracker,2013-07-17 23:57:00,
2013-07-17 17:02:00,87.5,46.2,29.89,WNW,294,15.0,15.0,24,0.00,,,0.00,WeatherTracker,2013-07-18 00:02:00,
2013-07-17 17:07:00,87.3,44.9,29.88,West,271,6.0,16.0,23,0.00,,,0.00,WeatherTracker,2013-07-18 00:07:00,
2013-07-17 17:12:00,87.4,45.0,29.88,NW,313,15.0,16.0,23,0.00,,,0.00,WeatherTracker,2013-07-18 00:12:00,
2013-07-17 17:17:00,86.9,44.6,29.89,WNW,303,11.0,18.0,23,0.00,,,0.00,WeatherTracker,2013-07-18 00:17:00,
2013-07-17 17:22:00,86.8,43.4,29.88,NW,325,9.0,19.0,22,0.00,,,0.00,WeatherTracker,2013-07-18 00:22:00,
2013-07-17 17:27:00,86.5,43.1,29.88,NW,323,8.0,19.0,22,0.00,,,0.00,WeatherTracker,2013-07-18 00:27:00,
2013-07-17 17:32:00,86.6,46.6,29.88,WNW,298,5.0,18.0,25,0.00,,,0.00,WeatherTracker,2013-07-18 00:32:00,
2013-07-17 17:38:00,86.0,45.0,29.88,WNW,294,7.0,18.0,24,0.00,,,0.00,WeatherTracker,2013-07-18 00:38:00,
2013-07-17 17:43:00,85.8,43.7,29.88,WSW,257,1.0,13.0,23,0.00,,,0.00,WeatherTracker,2013-07-18 00:43:00,
2013-07-17 17:48:00,86.1,45.1,29.88,NW,313,10.0,12.0,24,0.00,,,0.00,WeatherTracker,2013-07-18 00:48:00,
2013-07-17 17:53:00,86.1,45.1,29.88,NW,310,2.0,13.0,24,0.00,,,0.00,WeatherTracker,2013-07-18 00:53:00,
2013-07-17 17:58:00,86.2,46.2,29.88,WSW,254,4.0,13.0,25,0.00,,,0.00,WeatherTracker,2013-07-18 00:58:00,
2013-07-17 18:03:00,85.8,45.9,29.88,West,270,6.0,11.0,25,0.00,,,0.00,WeatherTracker,2013-07-18 01:03:00,
2013-07-17 18:08:00,85.4,45.5,29.87,NW,310,5.0,10.0,25,0.00,,,0.00,WeatherTracker,2013-07-18 01:08:00,
2013-07-17 18:13:00,85.4,46.6,29.88,WNW,293,5.0,12.0,26,0.00,,,0.00,WeatherTracker,2013-07-18 01:13:00,
2013-07-17 18:18:00,85.1,45.3,29.88,WNW,284,5.0,12.0,25,0.00,,,0.00,WeatherTracker,2013-07-18 01:18:00,
2013-07-17 18:23:00,84.8,45.0,29.87,NW,319,5.0,11.0,25,0.00,,,0.00,WeatherTracker,2013-07-18 01:23:00,
2013-07-17 18:28:00,84.7,46.0,29.87,West,277,5.0,16.0,26,0.00,,,0.00,WeatherTracker,2013-07-18 01:28:00,
2013-07-17 18:33:00,84.7,46.0,29.87,WSW,245,3.0,16.0,26,0.00,,,0.00,WeatherTracker,2013-07-18 01:33:00,
2013-07-17 18:38:00,84.6,46.9,29.88,West,268,6.0,12.0,27,0.00,,,0.00,WeatherTracker,2013-07-18 01:38:00,
2013-07-17 18:43:00,84.5,46.8,29.87,SW,223,4.0,12.0,27,0.00,,,0.00,WeatherTracker,2013-07-18 01:43:00,
2013-07-17 18:48:00,84.3,44.6,29.88,West,281,4.0,14.0,25,0.00,,,0.00,WeatherTracker,2013-07-18 01:48:00,
2013-07-17 18:53:00,84.2,45.6,29.87,WNW,285,5.0,14.0,26,0.00,,,0.00,WeatherTracker,2013-07-18 01:53:00,
2013-07-17 18:58:00,84.2,46.6,29.88,West,273,2.0,10.0,27,0.00,,,0.00,WeatherTracker,2013-07-18 01:58:00,
2013-07-17 19:03:00,84.1,45.5,29.88,WSW,256,5.0,9.0,26,0.00,,,0.00,WeatherTracker,2013-07-18 02:03:00,
2013-07-17 19:08:00,84.0,45.4,29.88,SW,236,3.0,7.0,26,0.00,,,0.00,WeatherTracker,2013-07-18 02:08:00,
2013-07-17 19:13:00,83.9,46.3,29.88,SW,231,4.0,7.0,27,0.00,,,0.00,WeatherTracker,2013-07-18 02:13:00,
2013-07-17 19:18:00,83.7,46.1,29.88,WSW,257,0.0,11.0,27,0.00,,,0.00,WeatherTracker,2013-07-18 02:18:00,
2013-07-17 19:23:00,83.7,45.1,29.88,WSW,252,2.0,11.0,26,0.00,,,0.00,WeatherTracker,2013-07-18 02:23:00,
2013-07-17 19:28:00,83.4,46.8,29.88,North,6,1.0,7.0,28,0.00,,,0.00,WeatherTracker,2013-07-18 02:28:00,
2013-07-17 19:33:00,81.9,46.5,29.88,NW,310,0.0,7.0,29,0.00,,,0.00,WeatherTracker,2013-07-18 02:33:00,
2013-07-17 19:38:00,80.5,46.2,29.88,NW,314,0.0,4.0,30,0.00,,,0.00,WeatherTracker,2013-07-18 02:38:00,
2013-07-17 19:43:00,79.4,46.1,29.88,NW,314,0.0,4.0,31,0.00,,,0.00,WeatherTracker,2013-07-18 02:43:00,
2013-07-17 19:48:00,78.8,45.6,29.89,NW,314,1.0,3.0,31,0.00,,,0.00,WeatherTracker,2013-07-18 02:48:00,
2013-07-17 19:53:00,78.5,46.2,29.89,NW,314,1.0,3.0,32,0.00,,,0.00,WeatherTracker,2013-07-18 02:53:00,
2013-07-17 19:58:00,77.7,47.1,29.89,NW,314,0.0,3.0,34,0.00,,,0.00,WeatherTracker,2013-07-18 02:58:00,
2013-07-17 20:03:00,76.9,46.4,29.88,NW,314,1.0,2.0,34,0.00,,,0.00,WeatherTracker,2013-07-18 03:03:00,
2013-07-17 20:08:00,75.9,44.7,29.88,NW,314,1.0,4.0,33,0.00,,,0.00,WeatherTracker,2013-07-18 03:08:00,
2013-07-17 20:13:00,75.7,46.1,29.89,NW,314,0.0,4.0,35,0.00,,,0.00,WeatherTracker,2013-07-18 03:13:00,
2013-07-17 20:18:00,75.1,47.7,29.88,South,187,4.0,4.0,38,0.00,,,0.00,WeatherTracker,2013-07-18 03:18:00,
2013-07-17 20:23:00,72.5,46.8,29.89,South,185,0.0,6.0,40,0.00,,,0.00,WeatherTracker,2013-07-18 03:23:00,
2013-07-17 20:29:00,71.9,46.3,29.89,South,185,0.0,6.0,40,0.00,,,0.00,WeatherTracker,2013-07-18 03:29:00,
2013-07-17 20:34:00,71.0,44.8,29.89,South,179,1.0,4.0,39,0.00,,,0.00,WeatherTracker,2013-07-18 03:34:00,
2013-07-17 20:39:00,70.8,45.9,29.89,SSE,167,2.0,4.0,41,0.00,,,0.00,WeatherTracker,2013-07-18 03:39:00,
2013-07-17 20:44:00,69.4,47.1,29.89,ESE,104,0.0,4.0,45,0.00,,,0.00,WeatherTracker,2013-07-18 03:44:00,
2013-07-17 20:49:00,67.9,47.5,29.90,ESE,106,2.0,7.0,48,0.00,,,0.00,WeatherTracker,2013-07-18 03:49:00,
2013-07-17 20:54:00,66.9,47.6,29.90,ESE,106,0.0,7.0,50,0.00,,,0.00,WeatherTracker,2013-07-18 03:54:00,
2013-07-17 20:59:00,66.2,47.5,29.90,ESE,106,1.0,4.0,51,0.00,,,0.00,WeatherTracker,2013-07-18 03:59:00,
2013-07-17 21:01:00,66.1,48.0,29.90,ESE,106,1.0,3.0,52,0.00,,,0.00,WeatherTracker,2013-07-18 04:01:00,
2013-07-17 21:06:00,66.0,47.3,29.91,ESE,106,1.0,2.0,51,0.00,,,0.00,WeatherTracker,2013-07-18 04:06:00,
2013-07-17 21:11:00,66.5,47.3,29.91,ESE,106,1.0,2.0,50,0.00,,,0.00,WeatherTracker,2013-07-18 04:11:00,
2013-07-17 21:16:00,66.8,47.0,29.91,ESE,106,0.0,2.0,49,0.00,,,0.00,WeatherTracker,2013-07-18 04:16:00,
2013-07-17 21:21:00,66.8,47.0,29.92,ESE,106,0.0,2.0,49,0.00,,,0.00,WeatherTracker,2013-07-18 04:21:00,
2013-07-17 21:26:00,66.6,46.8,29.92,ESE,106,0.0,1.0,49,0.00,,,0.00,WeatherTracker,2013-07-18 04:26:00,
2013-07-17 21:31:00,66.5,44.5,29.93,ESE,106,0.0,1.0,45,0.00,,,0.00,WeatherTracker,2013-07-18 04:31:00,
2013-07-17 21:36:00,66.9,46.6,29.93,ESE,106,0.0,1.0,48,0.00,,,0.00,WeatherTracker,2013-07-18 04:36:00,
2013-07-17 21:42:00,66.7,45.8,29.93,ESE,106,2.0,2.0,47,0.00,,,0.00,WeatherTracker,2013-07-18 04:42:00,
2013-07-17 21:47:00,66.2,44.2,29.94,ESE,106,0.0,2.0,45,0.00,,,0.00,WeatherTracker,2013-07-18 04:47:00,
2013-07-17 21:52:00,66.3,44.3,29.94,ESE,106,0.0,2.0,45,0.00,,,0.00,WeatherTracker,2013-07-18 04:52:00,
2013-07-17 21:57:00,67.1,45.6,29.94,ESE,106,0.0,2.0,46,0.00,,,0.00,WeatherTracker,2013-07-18 04:57:00,
2013-07-17 22:02:00,67.4,46.5,29.94,ESE,106,0.0,0.0,47,0.00,,,0.00,WeatherTracker,2013-07-18 05:02:00,
2013-07-17 22:07:00,68.1,44.8,29.94,ESE,107,4.0,0.0,43,0.00,,,0.00,WeatherTracker,2013-07-18 05:07:00,
2013-07-17 22:12:00,69.6,45.5,29.94,ESE,107,0.0,4.0,42,0.00,,,0.00,WeatherTracker,2013-07-18 05:12:00,
2013-07-17 22:17:00,69.7,44.3,29.94,SE,125,1.0,4.0,40,0.00,,,0.00,WeatherTracker,2013-07-18 05:17:00,
2013-07-17 22:22:00,70.3,44.8,29.94,SE,125,0.0,3.0,40,0.00,,,0.00,WeatherTracker,2013-07-18 05:22:00,
2013-07-17 22:27:00,70.1,44.0,29.94,SE,125,0.0,1.0,39,0.00,,,0.00,WeatherTracker,2013-07-18 05:27:00,
2013-07-17 22:32:00,69.4,43.4,29.94,SE,125,0.0,0.0,39,0.00,,,0.00,WeatherTracker,2013-07-18 05:32:00,
2013-07-17 22:37:00,68.6,44.0,29.94,SE,125,0.0,0.0,41,0.00,,,0.00,WeatherTracker,2013-07-18 05:37:00,
2013-07-17 22:42:00,67.6,44.3,29.94,SE,125,0.0,1.0,43,0.00,,,0.00,WeatherTracker,2013-07-18 05:42:00,
2013-07-17 22:47:00,67.2,43.9,29.94,SE,125,0.0,1.0,43,0.00,,,0.00,WeatherTracker,2013-07-18 05:47:00,
2013-07-17 22:52:00,66.8,43.0,29.94,SE,125,0.0,0.0,42,0.00,,,0.00,WeatherTracker,2013-07-18 05:52:00,
2013-07-17 22:57:00,65.9,44.0,29.94,SE,135,3.0,0.0,45,0.00,,,0.00,WeatherTracker,2013-07-18 05:57:00,
2013-07-17 23:02:00,63.5,45.0,29.95,ESE,115,3.0,5.0,51,0.00,,,0.00,WeatherTracker,2013-07-18 06:02:00,
2013-07-17 23:07:00,61.1,44.8,29.95,ESE,110,0.0,5.0,55,0.00,,,0.00,WeatherTracker,2013-07-18 06:07:00,
2013-07-17 23:13:00,59.6,45.3,29.95,ESE,110,1.0,5.0,59,0.00,,,0.00,WeatherTracker,2013-07-18 06:13:00,
2013-07-17 23:18:00,58.3,44.9,29.95,ESE,110,0.0,3.0,61,0.00,,,0.00,WeatherTracker,2013-07-18 06:18:00,
2013-07-17 23:23:00,57.3,45.2,29.95,ESE,115,2.0,3.0,64,0.00,,,0.00,WeatherTracker,2013-07-18 06:23:00,
2013-07-17 23:28:00,57.1,44.6,29.95,SE,142,3.0,4.0,63,0.00,,,0.00,WeatherTracker,2013-07-18 06:28:00,
2013-07-17 23:33:00,58.0,43.8,29.95,SE,134,2.0,5.0,59,0.00,,,0.00,WeatherTracker,2013-07-18 06:33:00,
2013-07-17 23:38:00,58.6,44.3,29.96,ESE,111,0.0,5.0,59,0.00,,,0.00,WeatherTracker,2013-07-18 06:38:00,
2013-07-17 23:43:00,58.3,44.0,29.96,ESE,111,0.0,4.0,59,0.00,,,0.00,WeatherTracker,2013-07-18 06:43:00,
2013-07-17 23:48:00,58.0,44.2,29.96,ESE,111,0.0,4.0,60,0.00,,,0.00,WeatherTracker,2013-07-18 06:48:00,
2013-07-17 23:53:00,57.3,44.4,29.96,West,275,2.0,5.0,62,0.00,,,0.00,WeatherTracker,2013-07-18 06:53:00,
2013-07-17 23:58:00,56.9,44.0,29.96,West,275,0.0,5.0,62,0.00,,,0.00,WeatherTracker,2013-07-18 06:58:00,